[[{"header":{"parameterUnit":"m.s-1","parameterCategory":1,"la1":30.2991,"la2":30.254,"lo1":-89.0895,"lo2":-89.0444,"dy":0.0017,"dx":0.0017,"nx":28,"ny":28,"refTime":"2024-04-20T21:00:00:Z","depth":0,"parameterNumber":2,"parameterNumberName":"U-component_of_WINDS"},"data":[0,0,0,0,0,0,0,0,0,0,0,0,0,0,0,0,0,0,0,0,0,0,0,0,0,0,0,0,0,0,0,0,0,0,0,0,0,0,0,0,0,0,0,0,0,0,0,0,0,0,0,0,0,0,0,0,0,0,-1.4627,-1.4627,0,-1.4642,-1.4643,-1.4643,-1.461,-1.4609,-1.4608,-1.4607,-1.4624,-1.4625,-1.4626,0,0,0,0,0,0,0,0,0,0,0,0,0,-1.4569,-1.457,-1.4627,-1.4627,-1.4627,-1.4642,-1.4643,-1.4643,-1.461,-1.4609,-1.4608,-1.4607,-1.4623,-1.4625,-1.4626,0,0,0,0,0,0,0,0,0,0,0,0,0,-1.459,-1.457,-1.4627,-1.4613,-1.4612,-1.4642,-1.4643,-1.4643,-1.4611,-1.4609,-1.4607,-1.4606,-1.4623,-1.4625,-1.4627,-1.4672,0,0,-1.4633,-1.4634,0,0,0,0,0,0,0,0,-1.4589,-1.4592,-1.4615,-1.4614,-1.4613,-1.4623,-1.4628,-1.4653,-1.4611,-1.4611,-1.4607,-1.4605,-1.4625,-1.4626,-1.4633,-1.4673,-1.4673,-1.4633,-1.4635,-1.4636,-1.4636,0,0,0,0,0,0,0,-1.4587,-1.4591,-1.4633,-1.4615,-1.4614,-1.4606,-1.4607,-1.4633,-1.4627,-1.4611,-1.4609,-1.4611,-1.4624,-1.4631,-1.4633,-1.4674,-1.4633,-1.4635,-1.4637,-1.4637,-1.4751,-1.4753,0,0,0,0,0,0,-1.4588,-1.459,-1.4632,-1.4633,-1.4597,-1.4608,-1.4609,-1.4621,-1.4626,-1.4625,-1.4612,-1.4609,-1.4628,-1.4631,-1.4634,-1.4687,-1.4636,-1.4638,-1.4639,-1.4749,-1.4751,-1.4753,0,0,0,0,0,0,-1.4587,-1.4592,-1.4632,-1.4611,-1.4616,-1.4611,-1.4624,-1.4622,-1.4629,-1.4627,-1.4626,-1.4621,-1.4627,-1.463,-1.4663,-1.4687,-1.4639,-1.4641,-1.4747,-1.475,-1.4752,-1.4795,0,0,0,0,0,0,-1.4585,-1.4592,-1.4609,-1.4612,-1.4617,-1.4661,-1.4626,-1.4624,-1.4633,-1.4629,-1.4635,-1.4634,-1.4626,-1.466,-1.4665,-1.4689,-1.4642,-1.4745,-1.4748,-1.4751,-1.4791,-1.4798,-1.4805,0,0,0,0,0,-1.4583,-1.462,-1.461,-1.4615,-1.4638,-1.4662,-1.4665,-1.4655,-1.4635,-1.4653,-1.4651,-1.4634,-1.4683,-1.4663,-1.4669,-1.4694,-1.4743,-1.4747,-1.4751,-1.4788,-1.4797,-1.4804,0,0,0,0,0,0,-1.4621,-1.462,-1.4609,-1.4648,-1.4656,-1.4657,-1.4679,-1.4665,-1.4678,-1.4674,-1.466,-1.4662,-1.4697,-1.4698,-1.4676,-1.4738,-1.471,-1.4715,-1.4736,-1.4745,-1.4751,-1.4751,-1.4644,0,0,0,0,0,-1.4633,-1.4653,-1.4651,-1.4686,-1.469,-1.4684,-1.4694,-1.4685,-1.4692,-1.4695,-1.4696,-1.4704,-1.4721,-1.4732,-1.4748,-1.479,-1.4791,-1.4811,-1.4817,-1.4823,-1.4828,-1.4851,-1.486,-1.4766,-1.4766,-1.4766,0,0,-1.466,-1.4662,-1.4676,-1.4694,-1.4698,-1.4719,-1.4687,-1.471,-1.4725,-1.4699,-1.4729,-1.473,-1.4737,-1.4775,-1.4791,-1.4777,-1.4854,-1.4828,-1.4832,-1.4835,-1.4856,-1.4865,-1.4873,-1.4769,-1.4768,-1.4768,0,0,-1.472,-1.4723,-1.4753,-1.4758,-1.4765,-1.476,-1.4767,-1.477,-1.477,-1.48,-1.4781,-1.4798,-1.4828,-1.4834,-1.4841,-1.4902,-1.4887,-1.4907,-1.4944,-1.4966,-1.4973,-1.498,-1.5002,-1.501,-1.4912,-1.4912,-1.4912,0,-1.4753,-1.4783,-1.477,-1.4794,-1.4803,-1.4779,-1.4809,-1.4814,-1.4827,-1.4833,-1.4817,-1.4854,-1.4857,-1.4896,-1.4911,-1.4917,-1.4925,-1.4908,-1.4973,-1.498,-1.4986,-1.5007,-1.5015,-1.4915,-1.4914,-1.4914,-1.4914,0,-1.4823,-1.4844,-1.4867,-1.4879,-1.489,-1.4917,-1.4908,-1.492,-1.491,-1.4907,-1.4938,-1.4941,-1.4957,-1.4965,-1.4955,-1.5002,-1.4993,-1.4975,-1.4947,-1.4997,-1.5017,-1.5025,-1.4918,-1.4917,-1.4917,-1.4916,0,0,-1.4908,-1.4912,-1.4921,-1.4926,-1.4932,-1.4948,-1.4973,-1.4988,-1.5,-1.5008,-1.503,-1.5055,-1.5038,-1.5046,-1.5037,-1.5056,-1.5105,-1.5036,-1.5036,-1.505,-1.5158,-1.5172,-1.5182,-1.5094,-1.5096,-1.5097,-1.5157,0,-1.4968,-1.5013,-1.5001,-1.5045,-1.5065,-1.5042,-1.5064,-1.507,-1.5067,-1.5083,-1.508,-1.5099,-1.5075,-1.5079,-1.5097,-1.5095,-1.5127,-1.5091,-1.5115,-1.5116,-1.5115,-1.5192,-1.5208,-1.5265,-1.5165,-1.5166,-1.5167,0,-1.5045,-1.5056,-1.5102,-1.5104,-1.5112,-1.5133,-1.5145,-1.5161,-1.5167,-1.5163,-1.5172,-1.5158,-1.5183,-1.5154,-1.5188,-1.5164,-1.5173,-1.5173,-1.5175,-1.5178,-1.5146,-1.5199,-1.5283,-1.5292,-1.5179,-1.5178,-1.5177,0,-1.5104,-1.5131,-1.5162,-1.5167,-1.517,-1.5185,-1.5186,-1.5191,-1.52,-1.5211,-1.5218,-1.5231,-1.5239,-1.525,-1.5241,-1.522,-1.5277,-1.5246,-1.5275,-1.5276,-1.529,-1.529,-1.5378,-1.5293,-1.5293,-1.5293,-1.5293,0,-1.5173,-1.5202,-1.5188,-1.5208,-1.524,-1.5226,-1.5258,-1.5257,-1.5261,-1.528,-1.526,-1.5278,-1.5264,-1.528,-1.5273,-1.5303,-1.5306,-1.5305,-1.5303,-1.5307,-1.5308,-1.5314,-1.5311,-1.5295,-1.5295,-1.5294,-1.5294,0,-1.5245,-1.5237,-1.527,-1.5269,-1.527,-1.5294,-1.5294,-1.5311,-1.5306,-1.533,-1.5335,-1.5328,-1.5347,-1.5337,-1.5357,-1.5352,-1.5391,-1.5383,-1.5389,-1.5388,-1.5418,-1.5416,-1.5515,-1.5527,-1.5433,-1.5434,-1.5435,0,-1.5291,-1.5313,-1.5315,-1.5326,-1.5329,-1.5347,-1.5357,-1.5343,-1.5354,-1.5362,-1.5379,-1.5396,-1.5409,-1.5439,-1.5436,-1.545,-1.5443,-1.5477,-1.5445,-1.5449,-1.5445,-1.5445,-1.5447,-1.5484,-1.5485,-1.5486,-1.5486,0,-1.5373,-1.5367,-1.5382,-1.5396,-1.5408,-1.5417,-1.5425,-1.5436,-1.5422,-1.5435,-1.5454,-1.5464,-1.5483,-1.55,-1.5512,-1.5514,-1.5499,-1.5496,-1.5504,-1.551,-1.5513,-1.5513,-1.5408,-1.5494,-1.5494,-1.5493,-1.5493,-1.5492,-1.5434,-1.5453,-1.5457,-1.5474,-1.5478,-1.5486,-1.5503,-1.55,-1.5515,-1.553,-1.5521,-1.5543,-1.5547,-1.5562,-1.5566,-1.5583,-1.557,-1.558,-1.5584,-1.5587,-1.5591,-1.5509,-1.5585,-1.5585,-1.5584,-1.5584,-1.5584,0,-1.5516,-1.5517,-1.5533,-1.5545,-1.5558,-1.5541,-1.5549,-1.5561,-1.5581,-1.5586,-1.5599,-1.562,-1.5636,-1.5633,-1.5648,-1.5662,-1.5655,-1.5667,-1.5666,-1.5667,-1.5602,-1.5594,-1.5672,-1.5672,-1.5672,-1.5672,-1.5672,-1.5672,-1.5561,-1.5591,-1.5586,-1.5619,-1.562,-1.5641,-1.5647,-1.5654,-1.5658,-1.5683,-1.5696,-1.5694,-1.5696,-1.571,-1.5724,-1.5723,-1.573,-1.5744,-1.574,-1.568,-1.5672,-1.5663,-1.5656,-1.5745,-1.5746,-1.5804,-1.5805,-1.5805]},{"header":{"parameterUnit":"m.s-1","parameterCategory":1,"la1":30.2991,"la2":30.254,"lo1":-89.0895,"lo2":-89.0444,"dy":0.0017,"dx":0.0017,"nx":28,"ny":28,"refTime":"2024-04-20T21:00:00:Z","depth":0,"parameterNumber":3,"parameterNumberName":"V-component_of_WINDS"},"data":[0,0,0,0,0,0,0,0,0,0,0,0,0,0,0,0,0,0,0,0,0,0,0,0,0,0,0,0,0,0,0,0,0,0,0,0,0,0,0,0,0,0,0,0,0,0,0,0,0,0,0,0,0,0,0,0,0,0,-5.5931,-5.5931,0,-5.5975,-5.5976,-5.5976,-5.5919,-5.5917,-5.5915,-5.5913,-5.5955,-5.5958,-5.5961,0,0,0,0,0,0,0,0,0,0,0,0,0,-5.5792,-5.5795,-5.593,-5.5931,-5.5932,-5.5975,-5.5976,-5.5976,-5.592,-5.5917,-5.5915,-5.5912,-5.5954,-5.5957,-5.5961,0,0,0,0,0,0,0,0,0,0,0,0,0,-5.5846,-5.5796,-5.593,-5.5909,-5.5907,-5.5975,-5.5976,-5.5977,-5.592,-5.5917,-5.5914,-5.5911,-5.5953,-5.5957,-5.5962,-5.6052,0,0,-5.5975,-5.5977,0,0,0,0,0,0,0,0,-5.5843,-5.5851,-5.5911,-5.591,-5.5909,-5.5939,-5.5942,-5.6002,-5.5921,-5.5915,-5.5913,-5.591,-5.5952,-5.5956,-5.5971,-5.6053,-5.6055,-5.5976,-5.5979,-5.5981,-5.5982,0,0,0,0,0,0,0,-5.5839,-5.5849,-5.5948,-5.5912,-5.5911,-5.5896,-5.59,-5.5953,-5.595,-5.5915,-5.5911,-5.5918,-5.595,-5.5967,-5.5972,-5.6056,-5.5976,-5.598,-5.5983,-5.5984,-5.6215,-5.6218,0,0,0,0,0,0,-5.5839,-5.5846,-5.5947,-5.5949,-5.5868,-5.5901,-5.5905,-5.5932,-5.5949,-5.5949,-5.592,-5.5915,-5.5961,-5.5966,-5.5973,-5.608,-5.5981,-5.5985,-5.5987,-5.6211,-5.6216,-5.6219,0,0,0,0,0,0,-5.5836,-5.5848,-5.5945,-5.5897,-5.5908,-5.5906,-5.5937,-5.5935,-5.5951,-5.5953,-5.5952,-5.5938,-5.5959,-5.5967,-5.6033,-5.6081,-5.5987,-5.5991,-5.6207,-5.6213,-5.6217,-5.6295,0,0,0,0,0,0,-5.5832,-5.5848,-5.5883,-5.5898,-5.5911,-5.6005,-5.594,-5.5938,-5.596,-5.5953,-5.597,-5.5969,-5.5957,-5.6026,-5.6037,-5.6085,-5.5995,-5.6203,-5.621,-5.6216,-5.6288,-5.6302,-5.6314,0,0,0,0,0,-5.5828,-5.5902,-5.5885,-5.5897,-5.5955,-5.6008,-5.6015,-5.6001,-5.5964,-5.5999,-5.6,-5.5969,-5.6074,-5.6034,-5.6046,-5.6096,-5.62,-5.6208,-5.6215,-5.6282,-5.6299,-5.6314,0,0,0,0,0,0,-5.589,-5.5903,-5.5885,-5.5966,-5.5987,-5.5999,-5.6042,-5.6019,-5.6049,-5.6042,-5.6021,-5.6025,-5.6096,-5.6102,-5.6057,-5.6184,-5.6131,-5.6141,-5.6178,-5.6194,-5.6206,-5.6204,-5.5998,0,0,0,0,0,-5.5914,-5.5957,-5.5966,-5.6037,-5.6048,-5.6044,-5.6066,-5.6053,-5.6073,-5.6081,-5.6087,-5.6107,-5.6144,-5.6169,-5.6203,-5.6289,-5.6291,-5.6329,-5.6342,-5.6352,-5.6362,-5.6408,-5.6425,-5.6244,-5.6244,-5.6244,0,0,-5.5962,-5.5974,-5.6003,-5.605,-5.6064,-5.6109,-5.6051,-5.6101,-5.6134,-5.6088,-5.6152,-5.6157,-5.6177,-5.6254,-5.6288,-5.6261,-5.6412,-5.6362,-5.6371,-5.6374,-5.6417,-5.6435,-5.645,-5.625,-5.6249,-5.6248,0,0,-5.6073,-5.6087,-5.6149,-5.6165,-5.6188,-5.6185,-5.62,-5.6215,-5.6218,-5.6282,-5.6249,-5.6287,-5.6352,-5.6368,-5.6384,-5.6503,-5.6476,-5.6515,-5.6583,-5.6628,-5.6642,-5.6655,-5.6698,-5.6713,-5.6524,-5.6524,-5.6524,0,-5.613,-5.6198,-5.6182,-5.6235,-5.6257,-5.622,-5.6281,-5.6297,-5.633,-5.6345,-5.6315,-5.6396,-5.6407,-5.6487,-5.6517,-5.6531,-5.6547,-5.6513,-5.6642,-5.6654,-5.6665,-5.6706,-5.6722,-5.6529,-5.6528,-5.6528,-5.6527,0,-5.6267,-5.6315,-5.6361,-5.6396,-5.6423,-5.6479,-5.6471,-5.65,-5.6485,-5.6484,-5.655,-5.6562,-5.6599,-5.6616,-5.6601,-5.6695,-5.6678,-5.6645,-5.6591,-5.6688,-5.6726,-5.6741,-5.6536,-5.6534,-5.6532,-5.6531,0,0,-5.6419,-5.6446,-5.6463,-5.6479,-5.6503,-5.6538,-5.6593,-5.6631,-5.6656,-5.6679,-5.6725,-5.6781,-5.6752,-5.6771,-5.6757,-5.6797,-5.6891,-5.6759,-5.6759,-5.6784,-5.6996,-5.7021,-5.7039,-5.6873,-5.6876,-5.6878,-5.6994,0,-5.6531,-5.6628,-5.6617,-5.6709,-5.6753,-5.6718,-5.6766,-5.6785,-5.6786,-5.6823,-5.6823,-5.6864,-5.6821,-5.6832,-5.687,-5.6872,-5.6933,-5.6863,-5.6914,-5.6917,-5.6912,-5.7059,-5.7085,-5.7194,-5.7009,-5.7011,-5.7013,0,-5.6675,-5.6707,-5.6805,-5.6823,-5.684,-5.6884,-5.6918,-5.6953,-5.6974,-5.6972,-5.6994,-5.6974,-5.7028,-5.6973,-5.7047,-5.7,-5.702,-5.7024,-5.7027,-5.7032,-5.6971,-5.7068,-5.7228,-5.7245,-5.7036,-5.7034,-5.7033,0,-5.6777,-5.6844,-5.6911,-5.6926,-5.6948,-5.698,-5.699,-5.7008,-5.7032,-5.7061,-5.7076,-5.711,-5.7129,-5.7156,-5.7145,-5.7106,-5.7222,-5.7165,-5.7221,-5.7222,-5.7247,-5.7246,-5.7414,-5.7259,-5.7259,-5.7259,-5.7258,0,-5.6905,-5.6966,-5.6958,-5.6999,-5.7067,-5.7052,-5.7118,-5.7124,-5.7141,-5.7182,-5.7153,-5.7192,-5.7175,-5.7213,-5.7205,-5.7268,-5.7276,-5.7276,-5.7273,-5.7279,-5.7279,-5.7292,-5.7284,-5.7263,-5.7262,-5.7261,-5.7261,0,-5.703,-5.7027,-5.7099,-5.7115,-5.712,-5.7169,-5.7182,-5.7221,-5.722,-5.7273,-5.7284,-5.7282,-5.7325,-5.7317,-5.7364,-5.7358,-5.7437,-5.7425,-5.7431,-5.7429,-5.7485,-5.748,-5.7668,-5.7692,-5.7521,-5.7523,-5.7524,0,-5.7112,-5.7159,-5.7181,-5.7207,-5.7221,-5.7263,-5.7288,-5.7275,-5.7302,-5.733,-5.7365,-5.7405,-5.7437,-5.7508,-5.751,-5.7545,-5.7534,-5.7597,-5.7539,-5.7544,-5.7536,-5.7533,-5.7538,-5.7609,-5.7611,-5.7612,-5.7613,0,-5.7258,-5.7255,-5.7292,-5.733,-5.7361,-5.7389,-5.7415,-5.7438,-5.7427,-5.7458,-5.7503,-5.7528,-5.7576,-5.7617,-5.7651,-5.766,-5.7635,-5.7632,-5.7647,-5.7654,-5.7656,-5.7656,-5.7464,-5.7628,-5.7626,-5.7625,-5.7624,-5.7624,-5.7364,-5.7405,-5.7427,-5.747,-5.7489,-5.7513,-5.7551,-5.7556,-5.7593,-5.7633,-5.7623,-5.7674,-5.7693,-5.7736,-5.7749,-5.7788,-5.7764,-5.7785,-5.7791,-5.7797,-5.7804,-5.765,-5.7793,-5.7793,-5.7793,-5.7792,-5.7792,0,-5.751,-5.7523,-5.7563,-5.76,-5.7634,-5.761,-5.7637,-5.7666,-5.7712,-5.7733,-5.7766,-5.7818,-5.7857,-5.7863,-5.7901,-5.793,-5.792,-5.7941,-5.7939,-5.7941,-5.7823,-5.7806,-5.7949,-5.7949,-5.7949,-5.7949,-5.7949,-5.7949,-5.7589,-5.7657,-5.7656,-5.7732,-5.7744,-5.7795,-5.7813,-5.7836,-5.7853,-5.7912,-5.7946,-5.795,-5.7965,-5.8003,-5.8039,-5.8039,-5.8054,-5.808,-5.8076,-5.7965,-5.795,-5.7935,-5.792,-5.8083,-5.8083,-5.8192,-5.8193,-5.8194]}]]